[[{"header":{"parameterUnit":"m.s-1","parameterCategory":1,"la1":30.2991,"la2":30.254,"lo1":-89.0895,"lo2":-89.0444,"dy":0.0017,"dx":0.0017,"nx":28,"ny":28,"refTime":"2023-09-30T03:00:00:Z","depth":0,"parameterNumber":2,"parameterNumberName":"U-component_of_WINDS"},"data":[0,0,0,0,0,0,0,0,0,0,0,0,0,0,0,0,0,0,0,0,0,0,0,0,0,0,0,0,0,0,0,0,0,0,0,0,0,0,0,0,0,0,0,0,0,0,0,0,0,0,0,0,0,0,0,0,0,0,-4.5548,-4.5548,0,-4.5503,-4.5503,-4.5502,-4.5377,-4.5375,-4.5372,-4.5369,-4.5325,-4.5327,-4.5328,0,0,0,0,0,0,0,0,0,0,0,0,0,-4.553,-4.5531,-4.5548,-4.5548,-4.5547,-4.5503,-4.5503,-4.5502,-4.5378,-4.5374,-4.5371,-4.5368,-4.5325,-4.5327,-4.5328,0,0,0,0,0,0,0,0,0,0,0,0,0,-4.5517,-4.5531,-4.5548,-4.548,-4.5473,-4.5503,-4.5502,-4.5502,-4.5378,-4.5374,-4.537,-4.5367,-4.5324,-4.5326,-4.5328,-4.5422,0,0,-4.5335,-4.5335,0,0,0,0,0,0,0,0,-4.5518,-4.5518,-4.549,-4.5485,-4.5477,-4.5442,-4.548,-4.5475,-4.5379,-4.5415,-4.5369,-4.5365,-4.5367,-4.5366,-4.5366,-4.542,-4.5418,-4.5335,-4.5336,-4.5337,-4.5337,0,0,0,0,0,0,0,-4.5519,-4.5519,-4.553,-4.549,-4.5482,-4.5452,-4.5446,-4.5478,-4.5414,-4.5411,-4.5402,-4.5398,-4.5363,-4.5365,-4.5364,-4.5417,-4.5335,-4.5336,-4.5338,-4.5338,-4.5548,-4.5553,0,0,0,0,0,0,-4.5529,-4.5521,-4.5532,-4.5529,-4.5488,-4.5456,-4.5449,-4.5457,-4.5414,-4.5403,-4.5402,-4.5393,-4.5363,-4.5362,-4.5362,-4.5471,-4.5337,-4.5339,-4.534,-4.5544,-4.5549,-4.5554,0,0,0,0,0,0,-4.5529,-4.5531,-4.5534,-4.5522,-4.552,-4.5461,-4.5471,-4.5458,-4.546,-4.5406,-4.5395,-4.5415,-4.536,-4.5359,-4.5408,-4.5468,-4.534,-4.5341,-4.5539,-4.5546,-4.5552,-4.5688,0,0,0,0,0,0,-4.5529,-4.5532,-4.5566,-4.5524,-4.5521,-4.558,-4.5474,-4.546,-4.5463,-4.5451,-4.5416,-4.5406,-4.5357,-4.5406,-4.5411,-4.5468,-4.5343,-4.5533,-4.5542,-4.555,-4.5678,-4.5699,-4.5716,0,0,0,0,0,-4.5529,-4.5606,-4.5569,-4.5571,-4.5563,-4.5584,-4.5582,-4.5523,-4.5468,-4.5503,-4.5469,-4.5407,-4.546,-4.5412,-4.5416,-4.5475,-4.5529,-4.554,-4.5549,-4.567,-4.5695,-4.5716,0,0,0,0,0,0,-4.5657,-4.5599,-4.5557,-4.5623,-4.5609,-4.5562,-4.5604,-4.5551,-4.5553,-4.5542,-4.5469,-4.5462,-4.5522,-4.5503,-4.5451,-4.5565,-4.5485,-4.5496,-4.5575,-4.5599,-4.5617,-4.5621,-4.5345,0,0,0,0,0,-4.5693,-4.5714,-4.5663,-4.5726,-4.5721,-4.5664,-4.5671,-4.5627,-4.561,-4.5604,-4.5574,-4.5561,-4.5574,-4.5585,-4.5595,-4.5675,-4.5667,-4.5717,-4.5736,-4.5752,-4.5763,-4.5807,-4.583,-4.5586,-4.5586,-4.5586,0,0,-4.5768,-4.5739,-4.5756,-4.5751,-4.5735,-4.576,-4.566,-4.569,-4.5709,-4.5609,-4.5654,-4.5631,-4.5612,-4.5678,-4.5705,-4.5664,-4.5829,-4.5765,-4.5778,-4.578,-4.5819,-4.5842,-4.5863,-4.5593,-4.5592,-4.5591,0,0,-4.5916,-4.5896,-4.5947,-4.5934,-4.5911,-4.5873,-4.5886,-4.5848,-4.5829,-4.5873,-4.5799,-4.582,-4.5845,-4.5835,-4.5833,-4.5981,-4.5925,-4.5986,-4.6086,-4.6129,-4.6149,-4.6165,-4.622,-4.6241,-4.5997,-4.5997,-4.5998,0,-4.6012,-4.6046,-4.598,-4.6016,-4.6017,-4.5927,-4.598,-4.597,-4.5953,-4.5956,-4.591,-4.594,-4.5921,-4.5985,-4.6021,-4.6021,-4.6035,-4.599,-4.6151,-4.6167,-4.6182,-4.6233,-4.6254,-4.6005,-4.6004,-4.6003,-4.6003,0,-4.6166,-4.6191,-4.6235,-4.6221,-4.6226,-4.627,-4.6213,-4.6227,-4.6183,-4.615,-4.6198,-4.6171,-4.6175,-4.6186,-4.6143,-4.6245,-4.622,-4.6164,-4.6082,-4.6214,-4.6261,-4.628,-4.6016,-4.6013,-4.6011,-4.6009,0,0,-4.6394,-4.6344,-4.6361,-4.6355,-4.6324,-4.6343,-4.6384,-4.6387,-4.6402,-4.6393,-4.6427,-4.6451,-4.6399,-4.6397,-4.6352,-4.639,-4.6512,-4.6329,-4.6327,-4.6366,-4.6625,-4.667,-4.6694,-4.6474,-4.6478,-4.648,-4.6628,0,-4.6536,-4.6603,-4.6546,-4.6624,-4.6648,-4.6564,-4.66,-4.6586,-4.6557,-4.6574,-4.6542,-4.6561,-4.6489,-4.6488,-4.6522,-4.649,-4.6564,-4.6478,-4.6507,-4.6509,-4.6517,-4.6718,-4.6764,-4.6905,-4.6646,-4.6649,-4.6651,0,-4.6711,-4.6711,-4.6792,-4.6758,-4.6766,-4.6799,-4.6799,-4.6815,-4.6799,-4.6775,-4.6775,-4.672,-4.676,-4.6679,-4.6734,-4.6677,-4.6686,-4.6672,-4.6676,-4.6678,-4.6589,-4.6728,-4.6948,-4.697,-4.6679,-4.6677,-4.6675,0,-4.6873,-4.6893,-4.6944,-4.694,-4.6902,-4.6928,-4.6913,-4.6892,-4.6899,-4.6899,-4.6903,-4.6908,-4.6912,-4.6918,-4.6867,-4.6812,-4.693,-4.6844,-4.6913,-4.6915,-4.6942,-4.6942,-4.717,-4.6945,-4.6945,-4.6944,-4.6944,0,-4.7039,-4.7092,-4.7016,-4.7048,-4.7106,-4.7041,-4.71,-4.7077,-4.7059,-4.7087,-4.7014,-4.7041,-4.6971,-4.6992,-4.6952,-4.7005,-4.7006,-4.699,-4.6979,-4.6998,-4.7,-4.7004,-4.6993,-4.695,-4.6949,-4.6947,-4.6947,0,-4.723,-4.7181,-4.7231,-4.7191,-4.7183,-4.7227,-4.7193,-4.7222,-4.7189,-4.7224,-4.7229,-4.7177,-4.7197,-4.7147,-4.7159,-4.7133,-4.721,-4.7182,-4.7216,-4.7208,-4.7281,-4.7276,-4.7521,-4.7551,-4.7305,-4.7308,-4.731,0,-4.734,-4.7379,-4.7344,-4.7356,-4.7346,-4.7367,-4.7374,-4.7312,-4.7322,-4.7307,-4.7339,-4.7353,-4.7361,-4.7398,-4.7363,-4.7373,-4.7346,-4.7431,-4.7347,-4.7366,-4.735,-4.735,-4.7354,-4.7449,-4.7452,-4.7455,-4.7457,0,-4.7542,-4.7516,-4.7528,-4.7533,-4.7543,-4.7544,-4.7539,-4.7554,-4.7488,-4.7503,-4.7523,-4.753,-4.7544,-4.756,-4.7562,-4.7548,-4.7493,-4.7483,-4.75,-4.7521,-4.7539,-4.7533,-4.7266,-4.7478,-4.7476,-4.7475,-4.7473,-4.7473,-4.7697,-4.7729,-4.7709,-4.7726,-4.7716,-4.7715,-4.774,-4.7711,-4.7726,-4.7732,-4.7695,-4.7724,-4.7708,-4.7706,-4.7698,-4.772,-4.7682,-4.7706,-4.7712,-4.772,-4.7733,-4.7534,-4.772,-4.772,-4.7719,-4.7718,-4.7718,0,-4.7897,-4.7881,-4.7897,-4.7893,-4.7907,-4.7853,-4.7845,-4.7861,-4.7887,-4.7877,-4.7887,-4.7912,-4.7928,-4.7894,-4.7905,-4.793,-4.7905,-4.7935,-4.7933,-4.7932,-4.7766,-4.7751,-4.7955,-4.7955,-4.7955,-4.7955,-4.7955,-4.7955,-4.8003,-4.8055,-4.8027,-4.8074,-4.8057,-4.8085,-4.8086,-4.8085,-4.8077,-4.8107,-4.812,-4.8098,-4.8079,-4.8088,-4.8101,-4.8091,-4.8099,-4.8139,-4.812,-4.7966,-4.7943,-4.7921,-4.7907,-4.8141,-4.8141,-4.8284,-4.8286,-4.8287]},{"header":{"parameterUnit":"m.s-1","parameterCategory":1,"la1":30.2991,"la2":30.254,"lo1":-89.0895,"lo2":-89.0444,"dy":0.0017,"dx":0.0017,"nx":28,"ny":28,"refTime":"2023-09-30T03:00:00:Z","depth":0,"parameterNumber":3,"parameterNumberName":"V-component_of_WINDS"},"data":[0,0,0,0,0,0,0,0,0,0,0,0,0,0,0,0,0,0,0,0,0,0,0,0,0,0,0,0,0,0,0,0,0,0,0,0,0,0,0,0,0,0,0,0,0,0,0,0,0,0,0,0,0,0,0,0,0,0,0.5357,0.5356,0,0.5263,0.5262,0.5261,0.5229,0.523,0.523,0.523,0.5127,0.5124,0.5121,0,0,0,0,0,0,0,0,0,0,0,0,0,0.5502,0.5499,0.5357,0.5356,0.5355,0.5263,0.5262,0.5261,0.5229,0.523,0.523,0.5231,0.5128,0.5124,0.5121,0,0,0,0,0,0,0,0,0,0,0,0,0,0.5426,0.5499,0.5357,0.5328,0.5325,0.5264,0.5262,0.526,0.5229,0.523,0.523,0.5231,0.5129,0.5125,0.512,0.5079,0,0,0.5106,0.5104,0,0,0,0,0,0,0,0,0.5431,0.5421,0.5334,0.533,0.5326,0.5259,0.5275,0.5199,0.5229,0.5265,0.523,0.5231,0.517,0.5162,0.5143,0.5074,0.507,0.5105,0.5103,0.5101,0.5099,0,0,0,0,0,0,0,0.5436,0.5425,0.532,0.5332,0.5328,0.5317,0.5307,0.5261,0.5215,0.5262,0.5259,0.5249,0.5168,0.5147,0.514,0.5068,0.5106,0.5101,0.5099,0.5097,0.496,0.4959,0,0,0,0,0,0,0.5447,0.543,0.5323,0.5317,0.5381,0.5314,0.5303,0.528,0.5216,0.5206,0.5249,0.5248,0.5155,0.5146,0.5136,0.5083,0.5101,0.5096,0.5094,0.496,0.4959,0.4958,0,0,0,0,0,0,0.545,0.5438,0.5326,0.5373,0.5358,0.5311,0.5285,0.5277,0.5257,0.5206,0.5197,0.5237,0.5155,0.5143,0.5094,0.5079,0.5094,0.509,0.4961,0.496,0.4959,0.4976,0,0,0,0,0,0,0.5455,0.5439,0.5425,0.5373,0.5355,0.5288,0.5284,0.5275,0.525,0.5248,0.5192,0.5183,0.5155,0.5101,0.5089,0.5072,0.5086,0.4962,0.4961,0.4959,0.4976,0.4975,0.4975,0,0,0,0,0,0.546,0.5432,0.5425,0.5412,0.5337,0.5287,0.5277,0.5247,0.5249,0.5233,0.52,0.5185,0.5083,0.5096,0.5083,0.5064,0.4963,0.4961,0.4959,0.4977,0.4976,0.4975,0,0,0,0,0,0,0.5482,0.5425,0.5416,0.5371,0.5334,0.5282,0.5261,0.5247,0.5207,0.5207,0.5169,0.5156,0.511,0.5082,0.5098,0.502,0.5022,0.5017,0.504,0.5038,0.5037,0.5044,0.5082,0,0,0,0,0,0.5482,0.5449,0.54,0.5365,0.5347,0.5307,0.5284,0.5265,0.5224,0.5208,0.5171,0.5131,0.5089,0.5062,0.5022,0.4973,0.4959,0.4954,0.4953,0.4952,0.4948,0.4918,0.4914,0.4952,0.4952,0.4952,0,0,0.5481,0.5446,0.5426,0.5368,0.5338,0.5301,0.5294,0.5256,0.5228,0.5201,0.5153,0.5125,0.5076,0.5027,0.5003,0.5003,0.4934,0.495,0.495,0.4945,0.4916,0.4912,0.4909,0.4951,0.4951,0.4951,0,0,0.546,0.5431,0.5398,0.5368,0.5323,0.5296,0.5288,0.5238,0.5219,0.517,0.5149,0.5114,0.5044,0.501,0.4984,0.495,0.4934,0.4938,0.4932,0.4903,0.49,0.4897,0.4883,0.4878,0.4934,0.4934,0.4934,0,0.5464,0.5411,0.5382,0.5346,0.532,0.5296,0.5261,0.5232,0.5175,0.5156,0.5157,0.5068,0.5034,0.4976,0.4968,0.4948,0.4935,0.4943,0.4903,0.49,0.4897,0.4882,0.4878,0.4934,0.4934,0.4934,0.4934,0,0.5416,0.5379,0.5358,0.5305,0.5277,0.5241,0.5205,0.5179,0.5162,0.5135,0.5084,0.5043,0.4993,0.4978,0.496,0.4916,0.4917,0.4911,0.4911,0.4894,0.488,0.4875,0.4935,0.4935,0.4935,0.4935,0,0,0.5405,0.5338,0.533,0.5306,0.5254,0.5223,0.5186,0.5139,0.5116,0.5077,0.5043,0.4985,0.4979,0.4949,0.4927,0.4902,0.4875,0.4899,0.4897,0.4894,0.4822,0.4825,0.4819,0.4865,0.4864,0.4863,0.4825,0,0.5376,0.531,0.5283,0.5228,0.5193,0.517,0.5136,0.51,0.5073,0.5037,0.5007,0.4965,0.4962,0.4944,0.4918,0.4884,0.486,0.4887,0.483,0.4828,0.4841,0.4812,0.4816,0.4781,0.4819,0.4819,0.4818,0,0.5333,0.5296,0.5238,0.519,0.5174,0.5144,0.5098,0.5065,0.5022,0.5004,0.4972,0.4951,0.4908,0.4913,0.4851,0.487,0.4845,0.4825,0.4823,0.4814,0.482,0.4801,0.477,0.4764,0.4809,0.481,0.4811,0,0.5328,0.5264,0.522,0.52,0.5143,0.5123,0.5097,0.5055,0.5028,0.4988,0.4969,0.4923,0.4898,0.4861,0.4828,0.4835,0.4768,0.4771,0.475,0.4751,0.4735,0.4736,0.4697,0.4723,0.4723,0.4723,0.4723,0,0.5297,0.5262,0.5218,0.5191,0.515,0.5119,0.5078,0.5051,0.5014,0.4979,0.4957,0.4924,0.4883,0.4845,0.4818,0.477,0.4759,0.4741,0.4734,0.4742,0.4744,0.4723,0.4723,0.4722,0.4722,0.4722,0.4723,0,0.5285,0.5254,0.5204,0.5155,0.5142,0.5113,0.507,0.5041,0.5014,0.4971,0.4958,0.4915,0.4868,0.4832,0.4771,0.4753,0.4701,0.4695,0.4716,0.4712,0.4692,0.4694,0.4637,0.4626,0.4662,0.4662,0.4662,0,0.5266,0.5239,0.5186,0.5163,0.5138,0.51,0.5073,0.5041,0.5013,0.4962,0.4939,0.4891,0.4851,0.4778,0.4739,0.4692,0.4682,0.4666,0.4675,0.4683,0.4679,0.468,0.4676,0.4664,0.4663,0.4663,0.4663,0,0.5235,0.5221,0.5184,0.5141,0.511,0.5074,0.5037,0.5019,0.4979,0.4949,0.4902,0.4872,0.481,0.4762,0.4711,0.4682,0.4664,0.4661,0.4653,0.4659,0.4672,0.4662,0.4711,0.4662,0.4662,0.4662,0.4662,0.4662,0.5217,0.5191,0.515,0.5109,0.5079,0.5045,0.5015,0.4985,0.4947,0.4895,0.4878,0.4829,0.4785,0.4715,0.4686,0.4645,0.4644,0.4633,0.463,0.4627,0.4627,0.4681,0.4636,0.4636,0.4636,0.4636,0.4636,0,0.5183,0.5156,0.5119,0.5069,0.5036,0.5026,0.4985,0.4957,0.4915,0.4876,0.4838,0.4783,0.4736,0.4695,0.4645,0.462,0.4611,0.4608,0.4608,0.4601,0.4632,0.4642,0.4616,0.4616,0.4616,0.4616,0.4616,0.4616,0.5161,0.5116,0.5097,0.5036,0.5008,0.4962,0.4939,0.4906,0.4875,0.4816,0.4778,0.4752,0.4711,0.4658,0.4614,0.4602,0.4584,0.4582,0.4569,0.4597,0.4599,0.4602,0.4611,0.4579,0.4579,0.4541,0.4541,0.4541]}]]